Regional Weather Roundup
Issued by NWS

Home | Current Version | Previous Version | Text Only | Print | Product List | Glossary Off
Versions: 1 2 3 4 5 6 7 8 9 10 11 12 13 14 15 16 17 18 19 20 21 22 23 24 25 26 27 28 29 30 31 32 33 34 35 36 37 38 39 40 41 42 43 44 45 46 47 48 49 50

779
ASUS44 KLIX 311705
RWRLA
LOUISIANA WEATHER ROUNDUP
NATIONAL WEATHER SERVICE NEW ORLEANS LA
1200 PM CDT THU JUL 31 2014

NOTE: "FAIR" INDICATES FEW OR NO CLOUDS BELOW 12,000 FEET WITH NO
      SIGNIFICANT WEATHER AND/OR OBSTRUCTIONS TO VISIBILITY.
      SKY/WX - SKY CONDITION AND SIGNIFICANT WEATHER.
      TMP - AIR TEMPERATURE.    DP   - DEWPOINT TEMPERATURE.
      RH  - RELATIVE HUMIDITY.  PRES - PRESSURE.
      HX  - HEAT INDEX.         WCI  - WIND CHILL INDEX.

*  THESE STATIONS ARE NOT NWS OR FAA STATIONS AND ARE NOT UNDER
   NWS QUALITY CONTROL.

LAZ040-048-061>063-065-066-069-311800-
SOUTHEAST LOUISIANA

CITY           SKY/WX    TMP DP  RH WIND       PRES   REMARKS
N.O. AUDUBON     N/A     92  66  42 MISG        N/A  HX  95
N.O. INTL ARPT PTSUNNY   89  66  46 E6        30.04S
N.O. LAKEFRONT MOSUNNY   85  65  51 NE8       30.05S
N.O. DOWNTOWN* CLOUDY    88  63  42 NE8       30.05S
SLIDELL        MOSUNNY   85  62  46 VRB3      30.05S
BATON ROUGE    MOSUNNY   84  66  54 E3        30.05F
BOOTHVILLE     MOSUNNY   85  66  53 VRB3      30.05R
BELLE CHASSE   CLOUDY    86  64  47 CALM      30.04S
BOGALUSA*      FAIR      82  64  54 CALM      30.07F
GALLIANO*      NOT AVBL
NEW ROADS*     FAIR      83  65  53 SE3       30.05S
GONZALES*      FAIR      82  71  68 NE3       30.04F
HAMMOND*       PTSUNNY   86  64  48 CALM      30.07F
HOUMA*         PTSUNNY   88  64  45 E5        30.04S
PORT FOURCHON* MOSUNNY   84  64  51 E8        30.06R

$$

LAZ041-044-053-054-311800-
SOUTHWEST LOUISIANA

CITY           SKY/WX    TMP DP  RH WIND       PRES   REMARKS
LAKE CHARLES   MOSUNNY   87  72  60 S8G17     30.01S
LAFAYETTE      MOSUNNY   84  67  56 VRB7      30.03F
PATTERSON      PTSUNNY   88  73  62 NE8       30.07F HX  96
SALT POINT       N/A     87  73  62 CALM      30.02F
NEW IBERIA     PTSUNNY   87  69  54 E7        30.04F
CHENAULT AIRPK PTSUNNY   84  70  61 E8        30.03S

$$

LAZ027-028-311800-
CENTRAL LOUISIANA

CITY           SKY/WX    TMP DP  RH WIND       PRES   REMARKS
FORT POLK      CLOUDY    82  67  60 VRB3      30.04S
ALEXANDRIA INT CLOUDY    82  65  56 E6        30.03S
ALEXANDRIA     CLOUDY    80  67  64 E3        30.05S

$$

LAZ001-002-311800-
NORTHWEST LOUISIANA

CITY           SKY/WX    TMP DP  RH WIND       PRES   REMARKS
SHREVEPORT     LGT RAIN  72  68  87 SE8       30.04F
BARKSDALE AFB  LGT RAIN  72  67  86 SE8       30.05S
DTN SHREVEPORT CLOUDY    72  67  84 SE6       30.05S

$$

LAZ014-016-311800-
NORTHEAST LOUISIANA

CITY           SKY/WX    TMP DP  RH WIND       PRES   REMARKS
MONROE         CLOUDY    76  64  66 E5        30.08S
TALLULAH       LGT RAIN  77  64  64 E6        30.07F

$$




USA.gov is the U.S. government's official web portal to all federal, state and local government web resources and services.